Location: Croissy-Beaubourg
(48.8283°N, 2.6696°E)
Time: 01:18:49
(UTC+00:00)

USA 215 - Pass Details

Date: 26 May 2022
Orbit: 1099 x 1108 km, 123.0° (Epoch: 10 June)

Event Time Altitude Azimuth Distance (km) Brightness Sun altitude
Rises 02:00:49 0° 71° (ENE) 3,921 7.0 -13.9°
Reaches altitude 10° 02:03:25 10° 65° (ENE) 2,964 6.4 -13.7°
Maximum altitude 02:09:31 44° 356° (N) 1,485 4.4 -13.1°
Drops below altitude 10° 02:15:38 10° 287° (WNW) 2,968 5.3 -12.6°
Sets 02:18:14 0° 281° (WNW) 3,927 5.9 -12.3°
